Hazard, Kentucky, United States (41701)
Lat: 37.25N, Lon: 83.19W
Wx Zone: KYZ115
Local Info
Past Weather Observations for Wednesday, July 30, 2014

NOTE: This archive is for the closest National Weather Service station to Hazard. Information may differ from the station used for current weather conditions.

Click here for Long-term Archive

Time Weather Temperature Dewpoint Humidity Pressure Winds Precip Visibility
23:53
Clear
64°F / 18°C 57°F / 14°C 78% 30.12 in
(1020 mb)
ENE 3.5 mph
(ENE 6 kph)
- 10SM
22:53
Clear
66°F / 19°C 57°F / 14°C 73% 30.12 in
(1020 mb)
Calm - 10SM
21:53
Clear
66°F / 19°C 57°F / 14°C 73% 30.12 in
(1020 mb)
Calm - 10SM
20:53
Clear
70°F / 21°C 57°F / 14°C 64% 30.12 in
(1020 mb)
Calm - 10SM
19:53
Clear
70°F / 21°C 57°F / 14°C 64% 30.09 in
(1019 mb)
Calm - 10SM
18:53
Clear
72°F / 22°C 61°F / 16°C 69% 30.09 in
(1019 mb)
Calm - 10SM
17:53
Partly Cloudy
75°F / 24°C 59°F / 15°C 57% 30.09 in
(1019 mb)
Calm - 10SM
16:53
Clear
77°F / 25°C 59°F / 15°C 54% 30.09 in
(1019 mb)
Variable 3.5 mph
(Variable 6 kph)
- 10SM
15:53
Partly Cloudy
75°F / 24°C 57°F / 14°C 54% 30.09 in
(1019 mb)
Calm - 10SM
14:53
Partly Cloudy
75°F / 24°C 59°F / 15°C 57% 30.09 in
(1019 mb)
Variable 3.5 mph
(Variable 6 kph)
- 10SM
13:53
Partly Cloudy
75°F / 24°C 61°F / 16°C 61% 30.12 in
(1020 mb)
Variable 3.5 mph
(Variable 6 kph)
- 10SM
12:53
Mostly Cloudy
72°F / 22°C 57°F / 14°C 61% 30.12 in
(1020 mb)
Variable 4.6 mph
(Variable 7 kph)
- 10SM
11:53
Partly Cloudy
72°F / 22°C 57°F / 14°C 61% 30.15 in
(1021 mb)
Calm - 10SM
10:53
Clear
70°F / 21°C 55°F / 13°C 60% 30.15 in
(1021 mb)
Calm - 10SM
09:53
Clear
66°F / 19°C 57°F / 14°C 73% 30.15 in
(1021 mb)
Variable 4.6 mph
(Variable 7 kph)
- 10SM
08:53
Clear
63°F / 17°C 55°F / 13°C 77% 30.12 in
(1020 mb)
Variable 3.5 mph
(Variable 6 kph)
- 10SM
08:01
Partly Cloudy
57°F / 14°C 55°F / 13°C 94% 30.15 in
(1021 mb)
Calm - 10SM
07:53
Mostly Cloudy
55°F / 13°C 54°F / 12°C 94% 30.12 in
(1020 mb)
Calm - 7SM
07:45
Mostly Cloudy
Fog And Mist
55°F / 13°C 54°F / 12°C 94% 30.12 in
(1020 mb)
Calm - 3SM
07:41
Overcast
Fog And Mist
55°F / 13°C 54°F / 12°C 94% 30.12 in
(1020 mb)
Calm - 1 3/4SM
07:28
Obscured
Fog And Mist
55°F / 13°C 54°F / 12°C 94% 30.12 in
(1020 mb)
Calm - 3/4SM
07:20
Mostly Cloudy
Fog And Mist
55°F / 13°C 54°F / 12°C 94% 30.12 in
(1020 mb)
Calm - 1 3/4SM
07:18
Mostly Cloudy
Fog And Mist
55°F / 13°C 54°F / 12°C 94% 30.12 in
(1020 mb)
Calm - 3SM
07:15
Mostly Cloudy
Fog And Mist
55°F / 13°C 54°F / 12°C 94% 30.12 in
(1020 mb)
Calm - 1 3/4SM
06:53
Obscured
Fog
54°F / 12°C 54°F / 12°C 100% 30.12 in
(1020 mb)
Calm - M1/4SM
06:12
Obscured
Fog And Mist
54°F / 12°C 52°F / 11°C 94% 30.12 in
(1020 mb)
Calm - 3/4SM
06:10
Partly Cloudy
Fog And Mist
54°F / 12°C 52°F / 11°C 94% 30.12 in
(1020 mb)
Calm - 2 1/2SM
05:53
Clear
55°F / 13°C 52°F / 11°C 88% 30.12 in
(1020 mb)
Calm - 7SM
04:53
Clear
Fog And Mist
55°F / 13°C 52°F / 11°C 88% 30.09 in
(1019 mb)
Calm - 5SM
03:53
Clear
Fog And Mist
55°F / 13°C 52°F / 11°C 88% 30.09 in
(1019 mb)
Calm - 6SM
02:53
Clear
Fog And Mist
55°F / 13°C 54°F / 12°C 94% 30.12 in
(1020 mb)
Calm - 6SM
01:53
Clear
57°F / 14°C 54°F / 12°C 88% 30.09 in
(1019 mb)
Calm - 9SM
00:53
Clear
57°F / 14°C 55°F / 13°C 94% 30.12 in
(1020 mb)
Calm - 9SM
Time Weather Temperature Dewpoint Humidity Pressure Winds Precip Visibility


Weather for websites

WeatherForYou.com, LLC is not responsible for any damages or problems caused by this service. Current weather conditions are obtained from the closest station including government and personal stations which may have varying degrees of accuracy. Weather forecasts are derived from the NOAA NDFD. Like all things, this site belongs to Jesus Christ... He just trusts me to maintain it. If you have any questions or comments email webmaster@weatherforyou.com

Copyright © 2014, WeatherForYou.com LLC. All rights reserved.